Location: *
(38.4303°S, 157.0822°W)
Time: 13:37:38
(UTC+00:00)

Cosmos 2058 - Pass Details

Date: 21 May 2024
Orbit: 547 x 564 km, 82.5° (Epoch: 22 June)

Event Time Altitude Azimuth Distance (km) Brightness Sun altitude
Exits shadow 16:14:04 - 193° (SSW) 2,534 5.9 -14.6°
Reaches altitude 10° 16:15:41 10° 195° (SSW) 1,875 5.2 -14.3°
Maximum altitude 16:19:45 59° 274° (W) 654 2.9 -13.5°
Drops below altitude 10° 16:23:43 10° 353° (N) 1,835 5.6 -12.7°
Sets 16:25:53 0° 357° (N) 2,717 6.5 -12.3°
